Home > Weather > Khartoum > Past weeks

Flag for Sudan Weather for the Past 2 Weeks in Khartoum, Sudan

Now
64 °F

Clear.


Feels Like: 64 °F
Forecast: 54 / 86 °F
Wind: 14 mph from North

Location: Khartoum Airport

Current Time: Feb 11, 2016 at 2:18:14 AM

Latest Report: Feb 11, 2016 at 1:00 AM


Visibility: 10 mi

Pressure: 30.04 "Hg

Humidity: 15%

Dew point: 16 °F

Location of KhartoumLocation

Historic Weather in Khartoum — Graph

°F

Khartoum Temperature Yesterday

Maximum temperature yesterday: 82 °F (at 4:00 PM)
Minimum temperature yesterday: 59 °F (at 7:00 AM)
Average temperature yesterday: 71 °F

High & Low Weather Summary for the Past Weeks

 TemperatureHumidityPressure
High90 °F (Feb 4, 4:00 PM)44% (Jan 27, 7:00 AM)30.27 "Hg (Jan 27, 7:00 AM)
Low52 °F (Jan 27, 7:00 AM)7% (Feb 10, 3:00 PM)29.86 "Hg (Feb 4, 4:00 PM)
Average70 °F21%30.03 "Hg
* Reported Jan 27 1:00 AM — Midnight between Feb 10 and Feb 11, Khartoum, Weather by CustomWeather, © 2016

Note: Actual official high and low records may vary slightly from our data, if they occured in-between our weather recording intervals... More about our weather records

Advertising

Khartoum Weather History for the Previous 24 Hours

 ConditionsComfort  
Time TempWeatherWind HumidityBarometerVisibility
12:00 AM
Thu, Feb 11
66 °FClear.14 mph11%30.07 "Hg10 mi
11:00 PM
Wed, Feb 10
70 °FClear.16 mph10%30.07 "Hg10 mi
10:00 PM72 °FClear.15 mph12%30.07 "Hg10 mi
9:00 PM73 °FClear.15 mph9%30.04 "Hg10 mi
8:00 PM77 °FClear.12 mph8%30.01 "Hg10 mi
7:00 PM79 °FClear.15 mph10%30.01 "Hg10 mi
6:00 PM81 °FSunny.16 mph7%29.98 "Hg10 mi
5:00 PM81 °FSunny.17 mph7%29.98 "Hg10 mi
4:00 PM82 °FSunny.21 mph9%29.98 "Hg10 mi
3:00 PM81 °FSunny.14 mph7%30.01 "Hg10 mi
2:00 PM75 °FSunny.12 mph16%30.07 "Hg10 mi
1:00 PM73 °FSunny.12 mph14%30.04 "Hg10 mi
12:00 PM73 °FSunny.12 mph14%30.07 "Hg10 mi
11:00 AM68 °FSunny.14 mph16%30.07 "Hg10 mi
10:00 AM64 °FSunny.15 mph18%30.07 "Hg10 mi
9:00 AM61 °FSunny.18 mph20%30.04 "Hg10 mi
8:00 AM59 °FSunny.14 mph23%30.01 "Hg10 mi
7:00 AM59 °FClear.20 mph21%30.01 "Hg10 mi
6:00 AM61 °FClear.14 mph17%29.98 "Hg10 mi
5:00 AM64 °FClear.17 mph15%29.95 "Hg10 mi
4:00 AM66 °FClear.14 mph18%29.95 "Hg10 mi
3:00 AM68 °FClear.14 mph20%29.98 "Hg10 mi
2:00 AM70 °FClear.15 mph16%29.98 "Hg10 mi
Weather by CustomWeather, © 2016

See weather overviewHow to use our weather pages